{"data":{"norad_id":39451,"intl_designator":"2013-067A","name":"SWARM B","alt_names":[],"object_type":"PAYLOAD","status":"ACTIVE","operator":null,"country":"ESA","launch_date":"2013-11-22","launch_site_code":"PLMSC","launch_vehicle":null,"mission":null,"orbit_class":"UNKNOWN","rcs_meters":2.5959,"size_class":null,"mass_kg":null,"dimensions":null,"purposes":["science"],"wikipedia_slug":null,"has_3d_model":false,"image_url":null,"decayed_at":null,"tle_current":{"epoch":"2026-09-20T04:12:17.843328Z","epoch_age_seconds":46139,"freshness":"FRESH","line1":"1 39451U 13067A   26263.17520652  .00002044  00000+0  71185-4 0  9991","line2":"2 39451  87.7430 313.4724 0003298  84.8720 275.2906 15.29060666697754","mean_motion":15.29060666,"eccentricity":0.0003298,"inclination_deg":87.743,"raan_deg":313.4724,"arg_perigee_deg":84.872,"mean_anomaly_deg":275.2906,"bstar":7.1185e-5,"rev_number":69775,"period_min":94.175465501118,"perigee_km":476.35766938442,"apogee_km":480.88038566018,"semimajor_km":6856.7560275223,"source":"CELESTRAK","updated_at":"2026-09-20T09:00:47.146793Z"}}}